FW1841 Weather Reports


Display with metric or nautical units.
time (UTC)temp
F
wind
direction
speed
MPH
gust
MPH
rain 1hr
in
rain 24hr
in
rain mn
in
humidity
%
barometer
mb
20260507221509 82 78 1.0 8.0 0.00 0.00 0.00 82 1014.6
20260507220008 82 55 6.0 11.0 0.00 0.00 0.00 81 1014.4
20260507214514 83 114 0.0 0.0 0.00 0.00 0.00 79 1014.3
20260507213008 84 115 0.0 6.0 0.00 0.00 0.00 80 1014.4
20260507211507 84 106 4.0 8.0 0.00 0.00 0.00 80 1014.2
20260507210007 84 120 1.0 8.0 0.00 0.00 0.00 80 1014.2
20260507204505 84 85 1.0 6.0 0.00 0.00 0.00 79 1014.2
20260507203006 86 150 1.0 9.0 0.00 0.00 0.00 76 1014.2
20260507201507 85 137 4.0 9.0 0.00 0.00 0.00 73 1014.1
20260507200107 85 128 4.0 10.0 0.00 0.00 0.00 72 1014.4
20260507194600 85 141 5.0 13.0 0.00 0.00 0.00 73 1014.5
20260507193102 86 139 6.0 15.0 0.00 0.00 0.00 72 1014.7
20260507191559 86 150 6.0 12.0 0.00 0.00 0.00 75 1014.7
20260507190058 86 156 7.0 13.0 0.00 0.00 0.00 75 1014.9
20260507184558 85 195 9.0 14.0 0.00 0.00 0.00 75 1015.1
20260507183056 86 230 6.0 14.0 0.00 0.00 0.00 76 1015.2
20260507181555 86 148 5.0 15.0 0.00 0.00 0.00 76 1015.5
20260507180104 86 150 7.0 14.0 0.00 0.00 0.00 71 1015.8
20260507174622 86 210 8.0 15.0 0.00 0.00 0.00 75 1016.0
20260507173051 86 148 9.0 15.0 0.00 0.00 0.00 70 1016.0
20260507171603 85 109 10.0 15.0 0.00 0.00 0.00 73 1016.3
20260507170050 85 136 9.0 14.0 0.00 0.00 0.00 75 1016.4
20260507164553 85 155 9.0 17.0 0.00 0.00 0.00 76 1016.5
20260507163047 86 146 9.0 16.0 0.00 0.00 0.00 75 1016.5
20260507161550 84 138 10.0 16.0 0.00 0.00 0.00 78 1016.7
20260507160109 85 128 9.0 15.0 0.00 0.00 0.00 77 1016.8
20260507154542 85 148 5.0 16.0 0.00 0.00 0.00 79 1016.7
20260507153040 84 207 9.0 20.0 0.00 0.00 0.00 81 1016.8
20260507151538 84 145 9.0 17.0 0.00 0.00 0.00 79 1016.8
20260507150038 84 143 10.0 14.0 0.00 0.00 0.00 80 1016.8
20260507144534 84 153 9.0 14.0 0.00 0.00 0.00 81 1016.8
20260507143032 84 157 7.0 16.0 0.00 0.00 0.00 81 1016.5
20260507141533 83 135 8.0 12.0 0.00 0.00 0.00 84 1016.6
20260507140040 82 148 9.0 14.0 0.00 0.00 0.00 83 1016.4
20260507134531 83 143 4.0 10.0 0.00 0.00 0.00 84 1016.4
20260507133032 83 120 6.0 10.0 0.00 0.00 0.00 82 1016.4
20260507131553 83 68 5.0 12.0 0.00 0.00 0.00 83 1016.3
20260507130026 82 117 6.0 11.0 0.00 0.00 0.00 84 1016.1
20260507124524 82 82 4.0 12.0 0.00 0.00 0.00 84 1016.0
20260507123027 82 89 3.0 11.0 0.00 0.00 0.00 84 1016.0
20260507121519 82 132 5.0 12.0 0.00 0.00 0.00 85 1015.9
20260507120028 81 117 3.0 10.0 0.00 0.00 0.00 85 1016.0
20260507114517 81 70 3.0 9.0 0.00 0.00 0.00 86 1015.8
20260507113031 80 84 2.0 6.0 0.00 0.00 0.00 87 1015.8
20260507111513 79 40 0.0 4.0 0.00 0.00 0.00 87 1015.5
20260507110009 78 82 0.0 0.0 0.00 0.00 0.00 88 1015.4
20260507104514 77 88 0.0 0.0 0.00 0.00 0.00 89 1015.3
20260507103008 77 88 0.0 0.0 0.00 0.00 0.00 89 1015.4
20260507101508 77 88 0.0 0.0 0.00 0.00 0.00 89 1015.1
20260507100013 77 88 0.0 0.0 0.00 0.00 0.00 89 1015.1
20260507094507 77 98 0.0 0.0 0.00 0.00 0.00 90 1015.0
20260507093006 77 116 0.0 0.0 0.00 0.00 0.00 90 1014.9
20260507091505 77 116 0.0 0.0 0.00 0.00 0.00 90 1014.7
20260507090006 77 116 0.0 0.0 0.00 0.00 0.00 89 1014.7
20260507084503 77 116 0.0 0.0 0.00 0.00 0.00 89 1014.5
20260507083007 77 98 0.0 0.0 0.00 0.00 0.00 89 1014.5
20260507081501 77 70 0.0 0.0 0.00 0.00 0.00 89 1014.4
20260507074558 77 25 0.0 0.0 0.00 0.00 0.00 89 1014.5
20260507073059 77 66 0.0 0.0 0.00 0.00 0.00 88 1014.7
20260507071555 77 70 0.0 4.0 0.00 0.00 0.00 88 1014.8
20260507070105 77 115 0.0 4.0 0.00 0.00 0.00 89 1015.0
20260507064554 77 87 0.0 7.0 0.00 0.00 0.00 89 1015.2
20260507063054 77 43 0.0 3.0 0.00 0.00 0.00 89 1015.3
20260507061548 77 83 0.0 0.0 0.00 0.00 0.00 89 1015.5
20260507060047 77 81 0.0 0.0 0.00 0.00 0.00 88 1015.7
20260507054545 77 86 0.0 3.0 0.00 0.00 0.00 88 1015.8
20260507053042 78 94 0.0 0.0 0.00 0.00 0.00 88 1016.2
20260507051541 78 64 0.0 0.0 0.00 0.00 0.00 88 1016.3
20260507050101 78 86 0.0 6.0 0.00 0.00 0.00 88 1016.5
20260507044549 78 70 0.0 0.0 0.00 0.00 0.00 88 1016.6
20260507043036 78 80 0.0 0.0 0.00 0.00 0.00 88 1016.8
20260507041535 78 75 0.0 5.0 0.00 0.00 0.00 88 1017.1
20260507040033 78 73 1.0 5.0 0.00 0.00 0.00 88 1017.2
20260507034538 78 63 2.0 7.0 0.00 0.00 0.00 88 1017.2
20260507033039 78 8 0.0 3.0 0.00 0.00 0.00 88 1017.2
20260507031534 78 358 0.0 5.0 0.00 0.00 0.00 87 1017.4
20260507030035 78 44 1.0 7.0 0.00 0.00 0.00 88 1017.5
20260507024535 78 35 1.0 8.0 0.00 0.00 0.00 88 1017.1
20260507023028 78 44 1.0 5.0 0.00 0.00 0.00 88 1017.1
20260507021544 78 37 0.0 6.0 0.00 0.00 0.00 87 1016.9
20260507020028 78 52 0.0 5.0 0.00 0.00 0.00 87 1017.0
20260507014527 79 72 0.0 8.0 0.00 0.00 0.00 87 1017.0
20260507013032 79 36 0.0 6.0 0.00 0.00 0.00 87 1016.9
20260507011531 79 84 0.0 8.0 0.00 0.00 0.00 87 1016.7
20260507010037 79 96 0.0 6.0 0.00 0.00 0.00 87 1016.7
20260507004525 79 63 0.0 0.0 0.00 0.00 0.00 87 1016.5
20260507003024 79 30 0.0 0.0 0.00 0.00 0.00 87 1016.7
20260507001524 79 41 3.0 8.0 0.00 0.00 0.00 87 1016.4
20260507000029 79 42 2.0 9.0 0.00 0.00 0.00 88 1016.5
20260506234524 80 57 4.0 9.0 0.00 0.00 0.00 87 1016.3
20260506233021 80 75 1.0 8.0 0.00 0.00 0.00 87 1016.2
20260506231525 80 53 4.0 7.0 0.00 0.00 0.00 86 1016.1
20260506230021 81 56 2.0 11.0 0.00 0.00 0.00 85 1015.9
20260506224521 82 86 4.0 11.0 0.00 0.00 0.00 84 1015.7
20260506223020 82 95 1.0 11.0 0.00 0.00 0.00 83 1015.7
20260506221519 83 50 0.0 10.0 0.00 0.00 0.00 81 1015.5